Hourly Data Report for June 13, 2018

LONDON CS
ONTARIO
Current Station Operator: ECCC - MSC

43°02'00.000" N
81°09'00.000" W
278.00 m
6144478
71622
WSN

Download Data

Hourly Data (June 2018)
Hourly Data Report for June 13, 2018
TIME Temp Definition
°C
Dew Point Definition
°C
Rel Hum Definition
%
Wind Dir Definition
10's deg

Wind Spd Definition
km/h
Visibility Definition
km
Stn Press Definition
kPa
Hmdx Definition


Wind Chill Definition


Weather Definition


00:00 20.2 16.3 78 LegendMM LegendMM   97.88 25   LegendNANA
01:00 19.8 16.5 81 LegendMM LegendMM   97.82     LegendNANA
02:00 20.0 17.3 84 LegendMM LegendMM   97.77 25   LegendNANA
03:00 19.8 17.9 89 LegendMM LegendMM   97.73     LegendNANA
04:00 19.4 17.8 91 LegendMM LegendMM   97.66     LegendNANA
05:00 19.6 18.5 94 LegendMM LegendMM   97.68     LegendNANA
06:00 19.6 18.5 93 LegendMM LegendMM   97.65     LegendNANA
07:00 19.8 18.7 94 LegendMM LegendMM   97.66     LegendNANA
08:00 21.1 19.0 88 LegendMM LegendMM   97.69 28   LegendNANA
09:00 23.0 19.0 78 LegendMM LegendMM   97.69 30   LegendNANA
10:00 23.9 18.5 72 LegendMM LegendMM   97.65 30   LegendNANA
11:00 26.1 19.0 65 LegendMM LegendMM   97.59 33   LegendNANA
12:00 26.5 18.3 61 LegendMM LegendMM   97.55 33   LegendNANA
13:00 27.8 18.7 58 LegendMM LegendMM   97.44 34   LegendNANA
14:00 20.4 19.2 93 LegendMM LegendMM   97.44 27   LegendNANA
15:00 24.6 16.4 60 LegendMM LegendMM   97.54 29   LegendNANA
16:00 24.6 13.5 50 LegendMM LegendMM   97.62 28   LegendNANA
17:00 23.8 11.4 46 LegendMM LegendMM   97.74 26   LegendNANA
18:00 23.1 9.3 41 LegendMM LegendMM   97.86     LegendNANA
19:00 21.8 8.5 42 LegendMM LegendMM   97.94     LegendNANA
20:00 19.8 7.8 46 LegendMM LegendMM   97.99     LegendNANA
21:00 17.0 7.8 55 LegendMM LegendMM   98.03     LegendNANA
22:00 15.0 7.5 61 LegendMM LegendMM   98.07     LegendNANA
23:00 15.1 8.0 62 LegendMM LegendMM   98.10     LegendNANA

Notes on Data Quality.

Legend

  • E = Estimated
  • M = Missing
  • NA = Not Available*
  • [empty] = Indicates an unobserved value
Date modified: